Back to catalog

BREEZE-M DEB

AliveHEO
NORAD 34244·DEBRIS·🇷🇺 Russia

Launched Feb 28, 2006 from Baikonur Cosmodrome

Loading…

Next Passes (next 24 hours)

TLE

FreshSource: Space-Track

Epoch: Sep 11, 2026, 01:51 UTC

1 34244U 06006BK  26254.07761661  .00001719  00000-0  31645-2 0  9991
2 34244  51.9950 160.3198 4737451 187.3971 161.9796  5.77327223 50588

Track BREEZE-M DEB in real time with AllMySat

Download on the App Store